Weather History for Alamogordo, NM

Change the Weather History Date:

Wednesday, April 16, 2014

  Actual Average Record
Temperature  
Mean Temperature 60 °F -  
Max Temperature 80 °F 78 °F 91 °F (1962)
Min Temperature 39 °F 46 °F 31 °F (1965)
Degree Days  
Heating Degree Days 6    
Growing Degree Days 10 (Base 50)    
Moisture  
Dew Point 3 °F    
Average Humidity 11    
Maximum Humidity 24    
Minimum Humidity 5    
Precipitation  
Precipitation 0.00 in - - ()
Sea Level Pressure  
Sea Level Pressure 29.85 in    
Wind  
Wind Speed 6 mph (SSW)    
Max Wind Speed 17 mph    
Max Gust Speed 23 mph    
Visibility 10 miles    
Events      
Averages and records for this station are not official NWS values.
T = Trace of Precipitation, MM = Missing Value Source: NWS Daily Summary

Daily Weather History Graph

Daily Weather History Graph

Search for Another Location

Airport:

Trip Planner

Search our weather history database for the weather conditions in past years. The results will help you decide how hot, cold, wet, or windy it might be!

Date:

Astronomy

Apr. 16, 2014 Rise Set
Actual Time 6:33 AM MDT 7:34 PM MDT
Civil Twilight 6:07 AM MDT 8:00 PM MDT
Nautical Twilight 5:37 AM MDT 8:30 PM MDT
Astronomical Twilight 5:06 AM MDT 9:01 PM MDT
Moon 9:16 PM MDT (4/16) 7:25 AM MDT (4/16)
Length of Visible Light 13h 52m
Length of Day
13h 01m
Full, 98% of the Moon is Illuminated
Apr 16
Full
Apr 22
Last Quarter
Apr 29
New
May 6
First Quarter
May 14
Full

Hourly Weather History & Observations

Time (MDT) Temp. Windchill Dew Point Humidity Pressure Visibility Wind Dir Wind Speed Gust Speed Precip Events Conditions
12:15 AM 53.6 °F - 1.4 °F 12% 29.93 in 10.0 mi South 6.9 mph - N/A   Clear
12:35 AM 50.0 °F - 1.4 °F 14% 29.93 in 10.0 mi South 9.2 mph - N/A   Clear
12:55 AM 50.0 °F - 1.4 °F 14% 29.93 in 10.0 mi SSE 8.1 mph - N/A   Clear
1:15 AM 51.8 °F - 1.4 °F 13% 29.93 in 10.0 mi South 5.8 mph - N/A   Clear
1:35 AM 48.2 °F - 1.4 °F 15% 29.92 in 10.0 mi SSE 8.1 mph - N/A   Clear
1:55 AM 48.2 °F - 1.4 °F 15% 29.92 in 10.0 mi South 6.9 mph - N/A   Clear
2:15 AM 46.4 °F 42.9 °F -0.4 °F 14% 29.92 in 10.0 mi SSW 6.9 mph - N/A   Clear
2:35 AM 46.4 °F 42.9 °F -0.4 °F 14% 29.92 in 10.0 mi South 6.9 mph - N/A   Clear
2:55 AM 44.6 °F 41.4 °F -0.4 °F 15% 29.91 in 10.0 mi SSE 5.8 mph - N/A   Clear
3:15 AM 44.6 °F - -0.4 °F 15% 29.90 in 10.0 mi Calm Calm - N/A   Clear
3:35 AM 48.2 °F - -0.4 °F 13% 29.90 in 10.0 mi Calm Calm - N/A   Clear
3:55 AM 48.2 °F - -0.4 °F 13% 29.89 in 10.0 mi Calm Calm - N/A   Clear
4:15 AM 42.8 °F - 1.4 °F 18% 29.89 in 10.0 mi Calm Calm - N/A   Clear
4:35 AM 41.0 °F - 1.4 °F 19% 29.89 in 10.0 mi Calm Calm - N/A   Clear
4:55 AM 46.4 °F - 1.4 °F 16% 29.89 in 10.0 mi Calm Calm - N/A   Clear
5:15 AM 44.6 °F - 1.4 °F 17% 29.89 in 10.0 mi Calm Calm - N/A   Clear
5:35 AM 41.0 °F - 3.2 °F 21% 29.88 in 10.0 mi Calm Calm - N/A   Clear
5:55 AM 41.0 °F - 6.8 °F 24% 29.88 in 10.0 mi Calm Calm - N/A   Clear
6:15 AM 41.0 °F - 5.0 °F 23% 29.88 in 10.0 mi Calm Calm - N/A   Clear
6:35 AM 39.2 °F - 5.0 °F 24% 29.88 in 10.0 mi Calm Calm - N/A   Clear
6:55 AM 41.0 °F 39.0 °F 3.2 °F 21% 29.89 in 10.0 mi SW 3.5 mph - N/A   Clear
7:15 AM 44.6 °F 42.2 °F 3.2 °F 18% 29.90 in 10.0 mi WNW 4.6 mph - N/A   Clear
7:35 AM 46.4 °F - 1.4 °F 16% 29.91 in 10.0 mi Calm Calm - N/A   Clear
7:55 AM 48.2 °F - 3.2 °F 16% 29.91 in 10.0 mi NNW 4.6 mph - N/A   Clear
8:15 AM 50.0 °F - 5.0 °F 16% 29.91 in 10.0 mi WNW 4.6 mph - N/A   Clear
8:35 AM 51.8 °F - 5.0 °F 15% 29.91 in 10.0 mi NW 4.6 mph - N/A   Clear
8:55 AM 53.6 °F - 5.0 °F 14% 29.92 in 10.0 mi NNW 8.1 mph - N/A   Clear
9:15 AM 57.2 °F - 6.8 °F 13% 29.92 in 10.0 mi NNW 8.1 mph - N/A   Clear
9:35 AM 59.0 °F - 6.8 °F 13% 29.93 in 10.0 mi NW 4.6 mph - N/A   Clear
9:55 AM 60.8 °F - 6.8 °F 12% 29.93 in 10.0 mi NNW 4.6 mph - N/A   Clear
10:15 AM 64.4 °F - 8.6 °F 11% 29.93 in 10.0 mi West 3.5 mph - N/A   Clear
10:35 AM 66.2 °F - 10.4 °F 11% 29.93 in 10.0 mi SSW 4.6 mph - N/A   Clear
10:55 AM 68.0 °F - 12.2 °F 12% 29.92 in 10.0 mi SSW 6.9 mph - N/A   Clear
11:15 AM 69.8 °F - 12.2 °F 11% 29.91 in 10.0 mi SSE 6.9 mph - N/A   Clear
11:35 AM 71.6 °F - 14.0 °F 11% 29.90 in 10.0 mi SSE 9.2 mph - N/A   Clear
12:15 PM 73.4 °F - 12.2 °F 10% 29.88 in 10.0 mi SW 6.9 mph - N/A   Clear
12:35 PM 73.4 °F - 10.4 °F 9% 29.88 in 10.0 mi SW 6.9 mph - N/A   Clear
12:55 PM 75.2 °F - 10.4 °F 8% 29.86 in 10.0 mi WSW 5.8 mph 16.1 mph N/A   Clear
1:15 PM 75.2 °F - 8.6 °F 8% 29.85 in 10.0 mi South 3.5 mph - N/A   Clear
1:35 PM 77.0 °F - 8.6 °F 7% 29.85 in 10.0 mi SW 11.5 mph 19.6 mph N/A   Clear
1:55 PM - - - N/A% - - North - - N/A   Unknown
2:15 PM 77.0 °F - 6.8 °F 7% 29.83 in 10.0 mi WNW 4.6 mph - N/A   Unknown
2:35 PM 77.0 °F - 3.2 °F 6% 29.82 in 10.0 mi WSW 4.6 mph - N/A   Clear
2:55 PM 77.0 °F - 1.4 °F 5% 29.82 in 10.0 mi West 10.4 mph - N/A   Unknown
3:15 PM 77.0 °F - 5.0 °F 6% 29.80 in 10.0 mi SSW 8.1 mph - N/A   Clear
3:35 PM 78.8 °F - 3.2 °F 5% 29.80 in 10.0 mi NW 8.1 mph - N/A   Clear
3:55 PM 78.8 °F - 5.0 °F 6% 29.78 in 10.0 mi South 10.4 mph - N/A   Clear
4:15 PM 77.0 °F - 1.4 °F 5% 29.77 in 10.0 mi West 3.5 mph - N/A   Clear
4:35 PM 78.8 °F - 1.4 °F 5% 29.76 in 10.0 mi East 4.6 mph - N/A   Clear
4:55 PM 78.8 °F - 1.4 °F 5% 29.76 in 10.0 mi Calm Calm - N/A   Clear
5:15 PM 80.6 °F - 3.2 °F 5% 29.75 in 10.0 mi SE 4.6 mph - N/A   Clear
5:35 PM 80.6 °F - 5.0 °F 6% 29.75 in 10.0 mi South 10.4 mph - N/A   Clear
5:55 PM 80.6 °F - 5.0 °F 6% 29.74 in 10.0 mi SSE 8.1 mph - N/A   Clear
6:15 PM 78.8 °F - 5.0 °F 6% 29.74 in 10.0 mi SE 8.1 mph - N/A   Clear
6:35 PM 77.0 °F - 5.0 °F 6% 29.74 in 10.0 mi SSE 11.5 mph - N/A   Clear
6:55 PM 77.0 °F - 1.4 °F 5% 29.74 in 10.0 mi SSW 9.2 mph - N/A   Clear
7:15 PM 75.2 °F - -2.2 °F 5% 29.74 in 10.0 mi SSW 15.0 mph 23.0 mph N/A   Clear
7:35 PM 73.4 °F - -2.2 °F 5% 29.75 in 10.0 mi SSW 12.7 mph - N/A   Clear
7:55 PM 71.6 °F - -2.2 °F 5% 29.75 in 10.0 mi SSW 12.7 mph - N/A   Clear
8:15 PM 68.0 °F - -2.2 °F 6% 29.76 in 10.0 mi South 10.4 mph - N/A   Clear
8:35 PM 62.6 °F - -0.4 °F 8% 29.77 in 10.0 mi South 5.8 mph - N/A   Clear
8:55 PM 60.8 °F - -0.4 °F 8% 29.78 in 10.0 mi South 8.1 mph - N/A   Clear
9:15 PM 57.2 °F - -0.4 °F 10% 29.79 in 10.0 mi SSE 8.1 mph - N/A   Clear
9:35 PM 62.6 °F - -0.4 °F 8% 29.79 in 10.0 mi SSE 9.2 mph - N/A   Clear
9:55 PM 64.4 °F - -0.4 °F 7% 29.79 in 10.0 mi SSE 11.5 mph - N/A   Clear
10:15 PM 66.2 °F - -0.4 °F 7% 29.79 in 10.0 mi SSE 10.4 mph - N/A   Clear
10:35 PM 68.0 °F - -0.4 °F 7% 29.79 in 10.0 mi SSW 12.7 mph - N/A   Clear
10:55 PM 69.8 °F - 1.4 °F 7% 29.79 in 7.0 mi WNW 17.3 mph 21.9 mph N/A   Clear
11:15 PM 68.0 °F - -0.4 °F 7% 29.80 in 10.0 mi NW 6.9 mph - N/A   Clear
11:35 PM 66.2 °F - -0.4 °F 7% 29.82 in 10.0 mi NNW 9.2 mph - N/A   Clear
11:55 PM 66.2 °F - -0.4 °F 7% 29.83 in 10.0 mi North 13.8 mph 17.3 mph N/A   Clear